Regional Weather Roundup
Issued by NWS

Home | Current Version | Previous Version | Text Only | Print | Product List | Glossary On
Versions: 1 2 3 4 5 6 7 8 9 10 11 12 13 14 15 16 17 18 19 20 21 22 23 24 25 26 27 28 29 30 31 32 33 34 35 36 37 38 39 40 41 42 43 44 45 46 47 48 49 50
000
ASUS43 KOAX 270610
RWRNE

WEATHER ROUNDUP FOR NEBRASKA
NATIONAL WEATHER SERVICE OMAHA NE
100 AM CDT SAT AUG 27 2016

NOTES: SATELLITE DATA IS BEING USED TO AUGMENT CLOUD COVER ABOVE
       12000 FEET.
       "FAIR" INDICATES FEW OR NO CLOUDS BELOW 12,000 FEET WITH NO
       SIGNIFICANT WEATHER AND/OR OBSTRUCTIONS TO VISIBILITY.

  * THESE STATIONS DO NOT REPORT WEATHER SUCH AS RAIN...SNOW OR FOG.

NEZ001>004-019>022-054>056-270700-
NEBRASKA PANHANDLE

CITY           SKY/WX    TMP DP  RH WIND       PRES   REMARKS
SCOTTSBLUFF    MOCLDY    57  54  89 NE9       30.07S
6HR MIN TEMP:  57; 6HR MAX TEMP:  68;

ALLIANCE       MOCLDY    53  52  96 E3        30.09R
6HR MIN TEMP:  50; 6HR MAX TEMP:  65;

CHADRON        TSTM      56  53  90 VRB5      30.09F
6HR MIN TEMP:  55; 6HR MAX TEMP:  74; 6HR PCP:  0.36;

KIMBALL        CLEAR     53  53 100 SW7       30.11F
SIDNEY         CLOUDY    55  54  96 CALM      30.10S
6HR MIN TEMP:  54; 6HR MAX TEMP:  64; 6HR PCP: TRACE;

$$

NEZ057>060-069>072-079>082-270700-
SOUTHWEST NEBRASKA

CITY           SKY/WX    TMP DP  RH WIND       PRES   REMARKS
NORTH PLATTE   CLEAR     54  53  97 NW5       30.06S FOG
6HR MIN TEMP:  53; 6HR MAX TEMP:  63; 6HR PCP: TRACE;

IMPERIAL       FOG       52  51  97 CALM      30.08S VSB 1/4
6HR MIN TEMP:  52; 6HR MAX TEMP:  61;

LEXINGTON      CLEAR     58  56  91 W5        30.05R
MCCOOK         CLEAR     54  52  93 W5        30.06R
6HR MIN TEMP:  52; 6HR MAX TEMP:  67; 6HR PCP:  0.18;

OGALLALA       CLOUDY    59  57  92 CALM      30.08S
$$

NEZ005>010-023>029-035>040-094-270700-
NORTH CENTRAL NEBRASKA

CITY           SKY/WX    TMP DP  RH WIND       PRES   REMARKS
VALENTINE      CLOUDY    57  55  93 CALM      30.05F
6HR MIN TEMP:  55; 6HR MAX TEMP:  64;

AINSWORTH      PTCLDY    57  56  97 SE5       30.06F
BROKEN BOW     CLOUDY    63  62  97 E7        30.05R
6HR MIN TEMP:  61; 6HR MAX TEMP:  67;

O`NEILL        CLOUDY    64  61  90 SE5       30.06F
ORD            MOCLDY    63  60  90 CALM      30.04F
6HR MIN TEMP:  63; 6HR MAX TEMP:  70; 6HR PCP: TRACE;

THEDFORD       FOG       54  53  97 CALM      30.08S VSB 3/4
$$

NEZ041-046>049-061>064-073>077-083>087-270700-
SOUTH CENTRAL NEBRASKA

CITY           SKY/WX    TMP DP  RH WIND       PRES   REMARKS
GRAND ISLAND   CLOUDY    64  63  96 SE10      30.01F FOG
6HR MIN TEMP:  64; 6HR MAX TEMP:  67;

AURORA         LGT RAIN  64  64 100 SE7       30.04F
HASTINGS       CLOUDY    64  63  96 SE12      30.03F FOG
6HR MIN TEMP:  64; 6HR MAX TEMP:  68; 6HR PCP:  0.05;

HEBRON           N/A     68  67  97 CALM      30.04S FOG
HOLDREGE       CLOUDY    59  57  93 CALM      30.04S
KEARNEY *      CLOUDY    64  61  88 S7        30.03S
YORK           LGT RAIN  64  64 100 SE6       30.04F
$$

NEZ011>018-030>034-042>045-270700-
NORTHEAST NEBRASKA

CITY           SKY/WX    TMP DP  RH WIND       PRES   REMARKS
NORFOLK        CLOUDY    63  61  93 E3        30.04F
6HR MIN TEMP:  62; 6HR MAX TEMP:  68; 6HR PCP:  0.01;

ALBION         CLOUDY    63  61  93 SE5       30.05F FOG
BLAIR          CLOUDY    65  64  95 CALM      30.03F
FREMONT        CLOUDY    65  64  94 CALM      30.04S
TEKAMAH        CLOUDY    65  63  93 CALM      30.03F
6HR MIN TEMP:  64; 6HR MAX TEMP:  67;

WAYNE          CLOUDY    63  62  96 E3        30.05F
$$

NEZ050>053-065>068-078-088>093-270700-
SOUTHEAST NEBRASKA

CITY           SKY/WX    TMP DP  RH WIND       PRES   REMARKS
LINCOLN        CLOUDY    68  66  93 SE5       30.04S
6HR MIN TEMP:  67; 6HR MAX TEMP:  70; 6HR PCP: TRACE;

OMAHA EPPLEY   CLOUDY    66  62  87 CALM      30.03S
6HR MIN TEMP:  66; 6HR MAX TEMP:  70;

BEATRICE       CLOUDY    68  66  95 SE5       30.03S
FALLS CITY     FOG       66  66 100 CALM      30.01F VSB 1
6HR MIN TEMP:  65; 6HR MAX TEMP:  72; 6HR PCP:  0.01;

NEBRASKA CITY  CLOUDY    66  66 100 CALM      30.03R FOG
PLATTSMOUTH    CLOUDY    65  65  99 CALM      30.03R
$$

NEZ044-045-051>053-067-270700-
OMAHA AREA

CITY           SKY/WX    TMP DP  RH WIND       PRES   REMARKS
OMAHA EPPLEY   CLOUDY    66  62  87 CALM      30.03S
6HR MIN TEMP:  66; 6HR MAX TEMP:  70;

BLAIR          CLOUDY    65  64  95 CALM      30.03F
FREMONT        CLOUDY    65  64  94 CALM      30.04S
MILLARD        CLOUDY    67  64  90 CALM      30.03S
OFFUTT AFB     PTCLDY    64  64 100 NE1       30.02S
PLATTSMOUTH    CLOUDY    65  65  99 CALM      30.03R
WAHOO          CLOUDY    66  64  93 CALM      30.04S
$$



USA.gov is the U.S. government's official web portal to all federal, state and local government web resources and services.